Вернуться в каталог

IRIDIUM 33 DEB

АктивенPO
NORAD 35616·DEBRIS·🇺🇸 United States

Запущен Sep 14, 1997 с Baikonur Cosmodrome

Loading…

Ближайшие Пролёты (ближайшие 24 часа)

TLE

СвежийSource: Space-Track

Эпоха: Sep 14, 2026, 07:35 UTC

1 35616U 97051QN  26257.31648289  .00009403  00000-0  10041-2 0  9990
2 35616  86.3526 219.1366 0004887 312.2310  47.8500 14.88699812916668

Отслеживайте IRIDIUM 33 DEB в реальном времени с AllMySat

Download on the App Store